Weather in Kapustin Yar

Russia / Astrakhan Oblast     48°34′28″N   45°45′58″E
temp.,
°C
wind,
m/s
gust,
m/s
humid.,
%
clouds,
%
prec.,
mm/h
press.,
hPa
HPBL,
m
1 march, mon
mon101:00−3n3484100 0.0 1019362
04:00−3nne2381100 0.1 1020344
07:00−4nne228495 0.0 1021204
10:00−3nne337287 0.0 1023424
13:00−1nnw335831 0.0 1024644
16:000nnw345416 0.0 1024758
19:00−2n23620 0.0 102580
22:00−2nnw12630 0.0 102751
2 march, tue
tue201:00−3wnw12640 0.0 102640
04:00−3wsw23680 0.0 102685
07:00−3wsw37770 0.0 1025175
10:00−1wsw697117 0.0 1024757
13:00+2w8115797 0.0 10211026
16:00+3wsw9136599 0.0 10181268
19:00+2wsw71473100 0.0 1016825
22:00+2wsw71481100 0.1 1014789
3 march, wed
wed301:00+1wsw91597100 1.3 1011716
04:00+1wsw71397100 1.8 1010676
07:00+1w61098100 1.3 1008442
10:00+1nnw6897100 2.5 1009484
13:00+3nw897189 0.1 10101105
16:00+2nw8116694 0.2 10121423
19:000nw5117998 0.2 1015665
22:00−2nw6127267 0.3 1018908
4 march, thu
thu401:00−3nw610720 0.0 1019890
04:00−2wnw5107819 0.0 1021661
07:00−2w5107822 0.0 1021428
10:00+1w7107012 0.0 1022770
13:00+4w8105945 0.0 10211228
16:00+5wsw8115924 0.0 10191189
19:00+2sw613710 0.0 1018327
22:00+1sw614790 0.0 1018359
5 march, fri
fri501:00+1sw714800 0.0 1017399
04:00+1sw714820 0.0 1017449
07:00+1sw7148241 0.0 1017463
10:00+3sw8137266 0.0 1016591
13:00+7sw811604 0.0 1016962
16:00+8wsw811602 0.0 10151263
19:00+4wsw47707 0.0 1016108
22:00+3sw487917 0.0 1017164